Location: Blue Sky Observatory
(43.1153°N, 70.9036°W)
Time: 04:43:07
(UTC-04:00)

Amateur Radio Satellites - All Passes

Search period start: 26 May 2016 04:13
Search period end: 27 May 2016 04:13
Location: Blue Sky Observatory, 43.1153°N, 70.9036°W

Satellite Date Start Highest point End Downlink Frequencies (MHz)
Time Altitude Azimuth
Cosmos 2504 26 May 04:21:32 04:29:31 47° 74° (ENE) 04:37:52 435.465 / 435.565
HORYU 2 26 May 04:28:19 04:30:52 15° 91° (E) 04:33:24 437.375
CUBESAT XI-V 26 May 04:31:54 04:35:55 29° 68° (ENE) 04:39:58 437.345
AO-7 26 May 04:42:24 04:50:49 77° 107° (ESE) 04:59:12 29.400- 29.500
KKS-1 26 May 04:48:32 04:51:28 17° 268° (W) 04:54:26 437.445
MOZHAYETS 4 26 May 04:49:24 04:53:03 24° 266° (W) 04:56:46
ISS 26 May 04:51:20 04:54:30 46° 219° (SW) 04:57:38 145.825
Cosmos 2491 26 May 04:58:06 05:06:56 73° 280° (W) 05:15:47 435.465 / 435.565
Gurwin Techsat 1B 26 May 05:02:50 05:03:23 10° 305° (NW) 05:03:56 435.225
STARS 26 May 05:30:47 05:32:27 12° 270° (W) 05:34:07 437.465
ITAMSAT 1 26 May 05:30:59 05:33:19 13° 303° (WNW) 05:35:40 435.822/435.867
BRITE-PL 26 May 05:37:30 05:39:32 12° 85° (E) 05:41:30 437.365/2234.400
NOAA 18 26 May 05:48:06 05:51:40 17° 91° (E) 05:55:13 137.9125
YUBILEINY 26 May 06:03:04 06:07:29 15° 286° (WNW) 06:11:56 435.215
HORYU 2 26 May 06:03:25 06:07:45 54° 288° (WNW) 06:12:04 437.375
Cubesat XI-IV 26 May 06:04:25 06:08:21 20° 92° (E) 06:12:14 437.490
NOAA 15 26 May 06:05:48 06:10:26 30° 96° (E) 06:15:01 137.62
CUBESAT XI-V 26 May 06:09:07 06:13:13 30° 265° (W) 06:17:23 437.345
GOMX 1 26 May 06:12:08 06:13:25 11° 86° (E) 06:14:40 467.674
Cosmos 2504 26 May 06:15:08 06:22:47 41° 273° (W) 06:30:47 435.465 / 435.565
AO-85 26 May 06:21:47 06:27:05 53° 118° (ESE) 06:32:18 145.980
LilacSat-2 26 May 06:32:57 06:36:21 30° 97° (E) 06:39:42 437.200
AO-7 26 May 06:36:09 06:42:49 28° 307° (NW) 06:49:29 29.400- 29.500
STRAND 1 26 May 06:42:46 06:47:43 54° 71° (ENE) 06:52:41 437.568
CUTE-I 26 May 06:50:22 06:55:37 52° 100° (E) 07:00:50 437.470
PRISM 26 May 07:00:23 07:02:29 14° 62° (ENE) 07:04:35 437.425
Cosmos 2491 26 May 07:00:30 07:05:32 16° 303° (WNW) 07:10:35 435.465 / 435.565
DOVE 4 26 May 07:08:21 07:11:32 19° 91° (E) 07:14:36 437.250
BRITE-PL 26 May 07:13:31 07:18:46 79° 285° (WNW) 07:23:35 437.365/2234.400
NOAA 18 26 May 07:27:22 07:32:47 66° 288° (WNW) 07:38:13 137.9125
AIST 1 26 May 07:36:15 07:39:22 19° 70° (ENE) 07:42:28
Cubesat XI-IV 26 May 07:43:31 07:48:44 55° 289° (WNW) 07:53:57 437.490
NOAA 15 26 May 07:45:24 07:50:15 37° 293° (WNW) 07:55:03 137.62
GOMX 1 26 May 07:47:25 07:52:13 75° 284° (WNW) 07:56:38 467.674
SO-50 26 May 07:48:05 07:50:29 14° 32° (NNE) 07:52:52 436.795
CINEMA 3 26 May 07:52:04 07:54:41 16° 91° (E) 07:57:15 145.822/145.860
HO-68 26 May 07:57:00 08:03:00 28° 94° (E) 08:08:57 435.675
GONETS M04 26 May 07:57:20 08:04:35 28° 66° (ENE) 08:11:45
AO-85 26 May 08:03:08 08:07:52 29° 316° (NW) 08:12:29 145.980
LilacSat-2 26 May 08:07:44 08:10:27 19° 293° (WNW) 08:13:11 437.200
CANX-2 26 May 08:18:43 08:22:41 35° 97° (E) 08:26:37 2200.000
STRAND 1 26 May 08:23:39 08:27:12 19° 268° (W) 08:30:48 437.568
SEEDS 26 May 08:25:10 08:28:46 26° 95° (E) 08:32:22 437.485
CUTE-I 26 May 08:31:13 08:35:17 23° 298° (WNW) 08:39:22 437.470
PRISM 26 May 08:33:13 08:37:18 59° 259° (W) 08:41:26 437.425
PCSat 26 May 08:42:25 08:43:40 11° 101° (E) 08:44:57 145.827
DOVE 4 26 May 08:45:18 08:49:27 38° 290° (WNW) 08:53:23 437.250
CUTE 1.7 + AOD 2 26 May 08:46:07 08:50:22 63° 101° (E) 08:54:37 437.475
Oscar 11 26 May 08:46:10 08:46:46 10° 88° (E) 08:47:22 145.826/435.025
CUBEBUG 2 26 May 08:52:30 08:55:50 23° 94° (E) 08:59:11 437.445
BRITE-PL 26 May 08:54:46 08:56:13 11° 304° (NW) 08:57:38 437.365/2234.400
ZACube-1 26 May 08:56:06 08:57:33 12° 90° (E) 08:59:00 437.345
Cosmos 2499 26 May 09:01:14 09:09:14 42° 73° (ENE) 09:17:30 435.465 / 435.565
UNISAT 6 26 May 09:04:11 09:06:50 16° 64° (ENE) 09:09:28 437.425
AUBIESAT-1 26 May 09:04:34 09:07:53 87° 294° (WNW) 09:11:11 437.475
M-CUBED/EXP-1 PRIME 26 May 09:09:50 09:13:05 57° 291° (WNW) 09:16:17 437.505
NOAA 18 26 May 09:11:39 09:12:25 10° 307° (NW) 09:13:12 137.9125
TIGRISAT 26 May 09:11:58 09:14:55 18° 65° (ENE) 09:17:51 435.000
AIST 1 26 May 09:13:04 09:17:08 38° 268° (W) 09:21:08
COMPASS 1 26 May 09:14:02 09:18:14 67° 101° (E) 09:22:26 437.405
AAUSAT CUBESAT 2 26 May 09:18:16 09:22:26 59° 101° (E) 09:26:34 437.432
UWE-3 26 May 09:24:17 09:28:08 35° 97° (E) 09:32:01 435.000/436.395/437.385
SO-50 26 May 09:27:12 09:31:55 66° 53° (NE) 09:36:27 436.795
CINEMA 3 26 May 09:28:07 09:32:05 42° 288° (WNW) 09:36:00 145.822/145.860
FUNcube-1 26 May 09:33:18 09:36:56 28° 96° (E) 09:40:36 145.935
ANTELSAT 26 May 09:43:48 09:47:51 39° 71° (ENE) 09:51:53 437.575/2403.000
HO-68 26 May 09:44:05 09:51:05 59° 292° (WNW) 09:58:06 435.675
O/OREOS (USA 219) 26 May 09:49:44 09:54:14 60° 109° (ESE) 09:58:43 437.305
GONETS M04 26 May 09:53:30 10:02:07 68° 267° (W) 10:10:40
CANX-2 26 May 09:55:02 09:58:20 22° 293° (WNW) 10:01:36 2200.000
SEEDS 26 May 10:00:48 10:04:26 28° 291° (WNW) 10:08:03 437.485
DELFI C3 26 May 10:02:15 10:05:57 33° 97° (E) 10:09:36 145.870
DUCHIFAT 1 26 May 10:08:54 10:10:54 13° 62° (ENE) 10:12:55 145.980
Oscar 11 26 May 10:19:03 10:23:24 74° 285° (WNW) 10:27:44 145.826/435.025
PCSat 26 May 10:20:44 10:26:09 81° 119° (ESE) 10:31:37 145.827
CUTE 1.7 + AOD 2 26 May 10:23:37 10:25:42 13° 297° (WNW) 10:27:47 437.475
CUBEBUG 2 26 May 10:28:52 10:32:29 30° 291° (WNW) 10:36:09 437.445
ZACube-1 26 May 10:30:07 10:34:14 62° 286° (WNW) 10:38:25 437.345
BUGSAT 1 26 May 10:34:17 10:35:52 12° 61° (ENE) 10:37:27 437.445
UNISAT 6 26 May 10:38:54 10:43:10 52° 260° (W) 10:47:24 437.425
POPSAT HIP 1 26 May 10:43:06 10:46:52 32° 69° (ENE) 10:50:38 437.405
QB50P1 26 May 10:43:38 10:47:25 33° 69° (ENE) 10:51:13 145.935-145.965
QB50P2 26 May 10:45:15 10:49:08 36° 70° (ENE) 10:53:01 145.880/145.840
TIGRISAT 26 May 10:47:07 10:51:18 44° 261° (W) 10:55:27 435.000
POLYITAN 1 26 May 10:47:41 10:51:35 36° 70° (ENE) 10:55:28 437.675
COMPASS 1 26 May 10:51:29 10:53:15 12° 298° (WNW) 10:55:02 437.405
HUMSAT D 26 May 10:52:17 10:56:22 55° 100° (E) 11:00:29 437.325/437.525
Cosmos 2499 26 May 10:54:23 11:02:24 47° 272° (W) 11:10:42 435.465 / 435.565
AAUSAT CUBESAT 2 26 May 10:55:20 10:57:26 14° 297° (WNW) 10:59:32 437.432
UWE-3 26 May 11:01:19 11:04:24 20° 294° (WNW) 11:07:30 435.000/436.395/437.385
NANOSAT C BR1 26 May 11:02:38 11:06:44 50° 73° (ENE) 11:10:49 145.865
SO-50 26 May 11:09:10 11:11:49 15° 252° (WSW) 11:14:24 436.795
FUNcube-1 26 May 11:09:40 11:13:06 25° 292° (WNW) 11:16:34 145.935
CUSAT 1 26 May 11:10:48 11:16:14 32° 85° (E) 11:22:39 437.405
AISAT 26 May 11:13:21 11:15:10 12° 90° (E) 11:17:00 437.250
ANTELSAT 26 May 11:21:34 11:24:44 19° 267° (W) 11:27:51 437.575/2403.000
UKube-1 26 May 11:30:09 11:31:40 12° 90° (E) 11:33:12 .
O/OREOS (USA 219) 26 May 11:31:05 11:34:03 17° 308° (NW) 11:37:01 437.305
HO-68 26 May 11:34:32 11:37:22 13° 312° (NW) 11:40:11 435.675
DELFI C3 26 May 11:37:35 11:40:36 21° 293° (WNW) 11:43:37 145.870
DUCHIFAT 1 26 May 11:41:55 11:46:06 62° 259° (W) 11:50:17 145.980
ESTCUBE 1 26 May 11:43:14 11:47:29 37° 98° (E) 11:51:41 437.505/2401.250
BEESAT 2 26 May 11:43:58 11:47:13 25° 114° (ESE) 11:50:30 435.950
JAS-2 26 May 11:46:37 11:53:17 39° 63° (ENE) 12:00:21 435.910
GONETS M04 26 May 11:54:08 11:57:07 12° 288° (WNW) 12:00:07
PCSat 26 May 12:06:18 12:10:13 20° 319° (NW) 12:14:09 145.827
BUGSAT 1 26 May 12:06:30 12:10:42 70° 257° (WSW) 12:14:53 437.445
CUBEBUG 1 26 May 12:08:59 12:13:15 48° 99° (E) 12:17:27 437.445
VELOX 1 26 May 12:11:49 12:16:08 49° 100° (E) 12:20:24 145.980
DX 1 26 May 12:11:51 12:15:59 41° 99° (E) 12:20:05 434.975-435.025
POPSAT HIP 1 26 May 12:19:18 12:22:41 23° 266° (W) 12:26:05 437.405
QB50P1 26 May 12:19:54 12:23:15 22° 266° (W) 12:26:36 145.935-145.965
BEESAT 3 26 May 12:20:58 12:24:54 75° 306° (NW) 12:28:52 437.485
QB50P2 26 May 12:21:51 12:25:02 20° 266° (W) 12:28:14 145.880/145.840
POLYITAN 1 26 May 12:24:22 12:27:30 20° 267° (W) 12:30:38 437.675
HUMSAT D 26 May 12:29:23 12:31:34 14° 297° (WNW) 12:33:46 437.325/437.525
DANDE 26 May 12:32:24 12:37:37 62° 94° (E) 12:44:33 436.750
50 SAT 26 May 12:38:17 12:41:58 62° 286° (WNW) 12:45:39 437.505
NANOSAT C BR1 26 May 12:40:22 12:42:45 15° 269° (W) 12:45:08 145.865
SPROUT 26 May 12:43:00 12:47:05 43° 99° (E) 12:51:08 437.525
AISAT 26 May 12:47:41 12:52:06 65° 286° (WNW) 12:56:26 437.250
Oscar 19 26 May 12:50:56 12:55:56 51° 71° (ENE) 13:00:58 437.125/150
CUSAT 1 26 May 12:51:50 12:57:56 50° 288° (WNW) 13:05:23 437.405
Gurwin Techsat 1B 26 May 13:02:21 13:06:51 29° 65° (ENE) 13:11:21 435.225
UKube-1 26 May 13:03:52 13:08:10 66° 286° (WNW) 13:12:26 .
TISAT 1 26 May 13:13:06 13:16:36 25° 95° (E) 13:20:04 437.305
Cosmos 2491 26 May 13:13:35 13:17:02 13° 53° (NE) 13:20:28 435.465 / 435.565
AO-85 26 May 13:14:26 13:16:21 12° 29° (NNE) 13:18:12 145.980
ESTCUBE 1 26 May 13:20:29 13:24:04 23° 294° (WNW) 13:27:39 437.505/2401.250
BEESAT 2 26 May 13:21:20 13:24:56 32° 312° (NW) 13:28:35 435.950
ITAMSAT 1 26 May 13:30:40 13:34:30 21° 62° (ENE) 13:38:21 435.822/435.867
JAS-2 26 May 13:31:02 13:38:02 50° 263° (W) 13:45:35 435.910
AIST 2 26 May 13:40:54 13:44:27 28° 114° (ESE) 13:48:00 435.215
BEESAT 26 May 13:44:12 13:45:32 11° 89° (E) 13:46:50 436.000
CUBEBUG 1 26 May 13:46:16 13:49:09 18° 297° (WNW) 13:52:02 437.445
DX 1 26 May 13:48:44 13:51:54 20° 296° (WNW) 13:55:03 434.975-435.025
VELOX 1 26 May 13:49:18 13:52:13 17° 297° (WNW) 13:55:07 145.980
AO-7 26 May 13:51:57 13:58:33 27° 53° (NE) 14:05:09 29.400- 29.500
BEESAT 3 26 May 14:01:55 14:03:18 11° 324° (NW) 14:04:40 437.485
DANDE 26 May 14:16:48 14:21:19 23° 300° (WNW) 14:26:45 436.750
SPROUT 26 May 14:19:50 14:22:43 18° 296° (WNW) 14:25:35 437.525
Oscar 19 26 May 14:31:39 14:35:32 21° 268° (W) 14:39:26 437.125/150
CUSAT 1 26 May 14:40:52 14:42:17 11° 311° (NW) 14:43:44 437.405
Gurwin Techsat 1B 26 May 14:41:41 14:46:38 39° 262° (W) 14:51:36 435.225
TISAT 1 26 May 14:48:39 14:52:13 28° 292° (WNW) 14:55:46 437.305
SWISSCUBE 26 May 14:49:13 14:53:57 56° 101° (E) 14:58:40 437.505
AO-85 26 May 14:53:21 14:58:01 54° 51° (NE) 15:02:16 145.980
ITUPSAT 1 26 May 14:54:36 14:59:20 57° 101° (E) 15:04:04 437.325
Cosmos 2491 26 May 15:07:23 15:16:04 61° 77° (ENE) 15:24:39 435.465 / 435.565
ITAMSAT 1 26 May 15:08:33 15:13:35 53° 260° (W) 15:18:40 435.822/435.867
YUBILEINY 26 May 15:11:08 15:17:50 26° 80° (E) 15:24:32 435.215
BEESAT 26 May 15:19:05 15:23:54 82° 286° (WNW) 15:28:41 436.000
AIST 2 26 May 15:19:09 15:22:51 31° 312° (NW) 15:26:35 435.215
HORYU 2 26 May 15:27:28 15:30:18 17° 63° (ENE) 15:33:08 437.375
STARS 26 May 15:42:14 15:43:24 11° 89° (E) 15:44:33 437.465
AO-7 26 May 15:42:15 15:50:32 77° 253° (WSW) 15:58:55 29.400- 29.500
RS-15 26 May 16:11:18 16:20:01 27° 101° (E) 16:29:03 29.354- 29.394
SWISSCUBE 26 May 16:28:07 16:31:19 18° 298° (WNW) 16:34:30 437.505
ITUPSAT 1 26 May 16:33:32 16:36:44 18° 298° (WNW) 16:39:56 437.325
AO-85 26 May 16:34:59 16:37:57 17° 252° (WSW) 16:40:46 145.980
KKS-1 26 May 16:36:31 16:40:59 85° 104° (ESE) 16:45:24 437.445
CUTE-I 26 May 16:36:36 16:39:13 14° 58° (ENE) 16:41:51 437.470
MOZHAYETS 4 26 May 16:42:06 16:46:44 74° 102° (ESE) 16:51:22
BRITE-PL 26 May 16:47:33 16:51:32 20° 62° (ENE) 16:55:32 437.365/2234.400
BEESAT 26 May 16:59:56 17:00:53 11° 303° (WNW) 17:01:50 436.000
HORYU 2 26 May 17:02:10 17:06:28 51° 260° (W) 17:10:47 437.375
Cosmos 2504 26 May 17:02:26 17:08:42 33° 85° (E) 17:15:13 435.465 / 435.565
Cosmos 2491 26 May 17:05:03 17:12:19 31° 278° (W) 17:19:31 435.465 / 435.565
YUBILEINY 26 May 17:05:09 17:13:47 70° 281° (W) 17:22:30 435.215
NOAA 18 26 May 17:14:50 17:19:48 37° 66° (ENE) 17:24:47 137.9125
STARS 26 May 17:15:53 17:20:15 71° 286° (WNW) 17:24:35 437.465
LilacSat-2 26 May 17:16:32 17:19:14 19° 67° (ENE) 17:21:55 437.200
GOMX 1 26 May 17:19:17 17:22:58 19° 62° (ENE) 17:26:35 467.674
PCSat 26 May 17:25:29 17:28:51 16° 38° (NE) 17:32:12 145.827
NOAA 15 26 May 17:26:35 17:31:43 53° 70° (ENE) 17:36:53 137.62
Cubesat XI-IV 26 May 17:27:06 17:31:56 37° 67° (ENE) 17:36:46 437.490
AO-7 26 May 17:40:18 17:44:37 15° 272° (W) 17:48:57 29.400- 29.500
CUBESAT XI-V 26 May 18:03:53 18:08:35 62° 101° (E) 18:13:14 437.345
CUTE-I 26 May 18:13:12 18:18:31 88° 258° (WSW) 18:23:52 437.470
DOVE 4 26 May 18:13:42 18:18:02 27° 67° (ENE) 18:22:15 437.250
KKS-1 26 May 18:15:41 18:16:52 11° 301° (WNW) 18:18:02 437.445
AUBIESAT-1 26 May 18:19:00 18:21:02 14° 59° (ENE) 18:23:01 437.475
RS-15 26 May 18:19:31 18:30:55 85° 303° (WNW) 18:43:02 29.354- 29.394
O/OREOS (USA 219) 26 May 18:20:35 18:23:28 16° 52° (NE) 18:26:19 437.305
MOZHAYETS 4 26 May 18:21:08 18:23:18 13° 299° (WNW) 18:25:28
M-CUBED/EXP-1 PRIME 26 May 18:23:38 18:26:32 19° 62° (ENE) 18:29:18 437.505
BRITE-PL 26 May 18:23:48 18:29:24 68° 259° (W) 18:35:07 437.365/2234.400
HO-68 26 May 18:27:32 18:33:02 25° 57° (ENE) 18:38:32 435.675
LilacSat-2 26 May 18:49:53 18:53:20 32° 263° (W) 18:56:46 437.200
STRAND 1 26 May 18:53:21 18:56:39 17° 91° (E) 18:59:56 437.568
CINEMA 3 26 May 18:54:17 18:57:42 20° 66° (ENE) 19:01:02 145.822/145.860
Cosmos 2504 26 May 18:54:54 19:01:46 46° 286° (WNW) 19:09:03 435.465 / 435.565
GOMX 1 26 May 18:55:01 19:00:29 69° 259° (W) 19:05:53 467.674
NOAA 18 26 May 18:55:40 19:00:29 31° 264° (W) 19:05:19 137.9125
BEESAT 3 26 May 19:01:17 19:03:01 12° 37° (NE) 19:04:46 437.485
Cubesat XI-IV 26 May 19:07:24 19:12:02 30° 264° (W) 19:16:41 437.490
PCSat 26 May 19:07:42 19:13:10 79° 59° (ENE) 19:18:35 145.827
NOAA 15 26 May 19:07:51 19:11:47 21° 267° (W) 19:15:45 137.62
YUBILEINY 26 May 19:07:56 19:12:27 15° 304° (NW) 19:17:01 435.215
CANX-2 26 May 19:12:34 19:16:10 28° 69° (ENE) 19:19:48 2200.000
SEEDS 26 May 19:18:12 19:21:22 21° 67° (ENE) 19:24:33 437.485
CUTE 1.7 + AOD 2 26 May 19:39:31 19:43:34 48° 73° (ENE) 19:47:39 437.475
CUBESAT XI-V 26 May 19:42:37 19:45:28 16° 298° (WNW) 19:48:17 437.345
Oscar 11 26 May 19:43:07 19:43:13 10° 60° (ENE) 19:43:18 145.826/435.025
DOVE 4 26 May 19:50:37 19:55:32 40° 263° (W) 20:00:19 437.250
AUBIESAT-1 26 May 19:51:05 19:55:12 58° 253° (WSW) 19:59:02 437.475
CUBEBUG 2 26 May 19:51:39 19:55:07 23° 67° (ENE) 19:58:31 437.445
ZACube-1 26 May 19:53:41 19:55:02 11° 62° (ENE) 19:56:24 437.345
M-CUBED/EXP-1 PRIME 26 May 19:56:51 20:00:53 41° 255° (WSW) 20:04:38 437.505
CUTE-I 26 May 19:57:53 19:59:19 11° 273° (W) 20:00:43 437.470
O/OREOS (USA 219) 26 May 19:58:51 20:03:17 59° 250° (WSW) 20:07:40 437.305
BEESAT 2 26 May 20:00:44 20:04:00 23° 45° (NE) 20:07:15 435.950
COMPASS 1 26 May 20:05:30 20:09:29 49° 73° (ENE) 20:13:31 437.405
AIST 1 26 May 20:09:13 20:10:03 10° 82° (E) 20:10:53
AAUSAT CUBESAT 2 26 May 20:09:17 20:13:11 43° 72° (ENE) 20:17:08 437.432
HO-68 26 May 20:12:58 20:20:06 72° 256° (WSW) 20:27:16 435.675
PRISM 26 May 20:14:45 20:17:34 17° 93° (E) 20:20:21 437.425
UWE-3 26 May 20:22:13 20:26:05 33° 70° (ENE) 20:29:52 435.000/436.395/437.385
CINEMA 3 26 May 20:29:59 20:34:34 46° 261° (W) 20:38:59 145.822/145.860
FUNcube-1 26 May 20:29:59 20:33:28 25° 68° (ENE) 20:36:55 145.935
STRAND 1 26 May 20:31:09 20:36:14 62° 288° (WNW) 20:41:18 437.568
RS-15 26 May 20:35:00 20:45:21 35° 332° (NNW) 20:56:12 29.354- 29.394
BEESAT 3 26 May 20:37:23 20:41:22 85° 57° (ENE) 20:45:18 437.485
CANX-2 26 May 20:48:30 20:52:00 25° 265° (W) 20:55:32 2200.000
DELFI C3 26 May 20:49:32 20:52:39 23° 67° (ENE) 20:55:48 145.870
PCSat 26 May 20:52:52 20:55:51 15° 256° (WSW) 20:58:49 145.827
SEEDS 26 May 20:53:04 20:56:52 34° 263° (W) 21:00:43 437.485
GONETS M04 26 May 21:00:21 21:07:39 31° 83° (E) 21:14:54
Oscar 11 26 May 21:14:21 21:18:39 87° 258° (WSW) 21:22:58 145.826/435.025
CUTE 1.7 + AOD 2 26 May 21:17:17 21:19:42 15° 269° (W) 21:22:07 437.475
ZACube-1 26 May 21:26:32 21:30:46 72° 257° (WSW) 21:34:58 437.345
CUBEBUG 2 26 May 21:27:37 21:31:36 33° 263° (W) 21:35:30 437.445
DANDE 26 May 21:28:41 21:33:11 15° 54° (NE) 21:37:35 436.750
ISS 26 May 21:31:28 21:34:20 29° 137° (SE) 21:37:14 145.825
BEESAT 2 26 May 21:38:15 21:41:57 37° 243° (WSW) 21:45:38 435.950
Cosmos 2499 26 May 21:40:36 21:46:33 28° 82° (E) 21:52:50 435.465 / 435.565
AIST 1 26 May 21:42:36 21:46:59 71° 279° (W) 21:51:24
COMPASS 1 26 May 21:43:04 21:45:20 14° 269° (W) 21:47:39 437.405
CUSAT 1 26 May 21:44:14 21:50:56 29° 64° (ENE) 21:56:49 437.405
HUMSAT D 26 May 21:44:28 21:48:18 42° 72° (ENE) 21:52:10 437.325/437.525
AAUSAT CUBESAT 2 26 May 21:46:18 21:48:53 16° 268° (W) 21:51:31 437.432
PRISM 26 May 21:49:07 21:53:04 41° 289° (WNW) 21:56:58 437.425
UWE-3 26 May 21:59:14 22:02:36 22° 266° (W) 22:05:56 435.000/436.395/437.385
AIST 2 26 May 22:00:57 22:04:34 28° 46° (NE) 22:08:09 435.215
FUNcube-1 26 May 22:05:58 22:09:38 28° 264° (W) 22:13:16 145.935
HO-68 26 May 22:06:32 22:09:00 12° 274° (W) 22:11:28 435.675
AISAT 26 May 22:11:45 22:14:06 14° 61° (ENE) 22:16:26 437.250
DELFI C3 26 May 22:23:56 22:27:23 28° 264° (W) 22:30:52 145.870
UKube-1 26 May 22:25:52 22:27:46 13° 61° (ENE) 22:29:41 .
UNISAT 6 26 May 22:29:38 22:33:20 28° 96° (E) 22:37:05 437.425
TIGRISAT 26 May 22:37:26 22:41:18 31° 97° (E) 22:45:10 435.000
ESTCUBE 1 26 May 22:43:33 22:47:44 38° 70° (ENE) 22:51:57 437.505/2401.250
RS-15 26 May 22:53:11 23:02:49 26° 7° (N) 23:12:40 29.354- 29.394
GONETS M04 26 May 22:55:12 23:03:53 61° 283° (WNW) 23:12:34
PHONESAT 2.4 26 May 23:01:41 23:04:23 27° 161° (SSE) 23:07:06 2401.200-2431.200
CUBEBUG 1 26 May 23:05:34 23:09:47 45° 71° (ENE) 23:14:02 437.445
ISS 26 May 23:07:36 23:10:43 40° 335° (NNW) 23:13:50 145.825
DX 1 26 May 23:08:05 23:12:11 41° 70° (ENE) 23:16:18 434.975-435.025
DANDE 26 May 23:09:29 23:17:52 62° 75° (ENE) 23:25:34 436.750
VELOX 1 26 May 23:09:46 23:14:04 50° 72° (ENE) 23:18:24 145.980
ANTELSAT 26 May 23:10:28 23:14:47 78° 103° (ESE) 23:19:08 437.575/2403.000
50 SAT 26 May 23:17:09 23:20:44 65° 75° (ENE) 23:24:23 437.505
HUMSAT D 26 May 23:21:36 23:24:09 16° 268° (W) 23:26:41 437.325/437.525
DUCHIFAT 1 26 May 23:25:55 23:28:52 18° 93° (E) 23:31:48 145.980
CUSAT 1 26 May 23:25:56 23:33:41 62° 266° (W) 23:40:10 437.405
Cosmos 2499 26 May 23:32:04 23:39:07 55° 284° (WNW) 23:46:44 435.465 / 435.565
SPROUT 26 May 23:37:22 23:41:20 38° 71° (ENE) 23:45:19 437.525
AIST 2 26 May 23:39:20 23:43:04 33° 244° (WSW) 23:46:46 435.215
SO-50 26 May 23:43:29 23:46:44 18° 110° (ESE) 23:50:00 436.795
AISAT 26 May 23:45:35 23:50:02 66° 258° (WSW) 23:54:30 437.250
BUGSAT 1 26 May 23:48:45 23:51:04 15° 92° (E) 23:53:22 437.445
UKube-1 26 May 23:58:56 00:03:15 70° 257° (WSW) 00:07:36 .
POPSAT HIP 1 27 May 00:02:03 00:06:09 51° 100° (E) 00:10:14 437.405
QB50P1 27 May 00:02:33 00:06:40 52° 100° (E) 00:10:45 145.935-145.965
QB50P2 27 May 00:04:28 00:08:38 58° 101° (E) 00:12:47 145.880/145.840
TISAT 1 27 May 00:05:51 00:09:10 23° 66° (ENE) 00:12:30 437.305
UNISAT 6 27 May 00:06:23 00:10:00 27° 292° (WNW) 00:13:39 437.425
POLYITAN 1 27 May 00:06:55 00:11:05 60° 101° (E) 00:15:13 437.675
TIGRISAT 27 May 00:14:25 00:17:51 24° 293° (WNW) 00:21:19 435.000
ESTCUBE 1 27 May 00:21:12 00:24:40 21° 267° (W) 00:28:09 437.505/2401.250
NANOSAT C BR1 27 May 00:21:30 00:25:42 83° 102° (ESE) 00:29:53 145.865
PHONESAT 2.4 27 May 00:37:47 00:40:51 51° 177° (S) 00:43:55 2401.200-2431.200
JAS-2 27 May 00:40:37 00:47:00 30° 91° (E) 00:52:47 435.910
CUBEBUG 1 27 May 00:43:17 00:46:18 18° 268° (W) 00:49:19 437.445
DX 1 27 May 00:45:22 00:48:32 19° 267° (W) 00:51:43 434.975-435.025
ISS 27 May 00:45:22 00:47:46 19° 355° (N) 00:50:10 145.825
VELOX 1 27 May 00:47:58 00:50:48 16° 268° (W) 00:53:39 145.980
ANTELSAT 27 May 00:49:39 00:50:54 11° 299° (WNW) 00:52:09 437.575/2403.000
BEESAT 27 May 00:50:55 00:53:46 16° 61° (ENE) 00:56:37 436.000
DANDE 27 May 00:53:02 01:00:12 32° 275° (W) 01:06:53 436.750
GONETS M04 27 May 00:59:19 01:02:51 13° 306° (NW) 01:06:23
DUCHIFAT 1 27 May 01:00:50 01:04:43 38° 289° (WNW) 01:08:34 145.980
Oscar 19 27 May 01:02:44 01:05:54 16° 90° (E) 01:09:02 437.125/150
RS-15 27 May 01:07:43 01:19:27 48° 40° (NE) 01:31:12 29.354- 29.394
CUSAT 1 27 May 01:12:08 01:13:55 11° 287° (WNW) 01:15:40 437.405
SPROUT 27 May 01:14:15 01:17:25 20° 267° (W) 01:20:35 437.525
YUBILEINY 27 May 01:19:57 01:23:47 13° 54° (NE) 01:27:36 435.215
SO-50 27 May 01:21:53 01:26:46 64° 307° (NW) 01:31:38 436.795
BUGSAT 1 27 May 01:22:49 01:26:42 44° 288° (WNW) 01:30:31 437.445
POPSAT HIP 1 27 May 01:39:03 01:41:32 15° 297° (WNW) 01:44:00 437.405
QB50P1 27 May 01:39:37 01:42:01 15° 297° (WNW) 01:44:26 145.935-145.965
TISAT 1 27 May 01:40:50 01:44:39 33° 263° (W) 01:48:30 437.305
QB50P2 27 May 01:41:49 01:43:58 14° 298° (WNW) 01:46:07 145.880/145.840
POLYITAN 1 27 May 01:44:20 01:46:24 14° 298° (WNW) 01:48:28 437.675
SWISSCUBE 27 May 01:56:26 02:01:10 72° 74° (ENE) 02:05:56 437.505
NANOSAT C BR1 27 May 02:00:29 02:00:47 10° 300° (WNW) 02:01:05 145.865
ITUPSAT 1 27 May 02:02:06 02:06:50 73° 74° (ENE) 02:11:37 437.325
KKS-1 27 May 02:03:28 02:03:47 10° 58° (ENE) 02:04:06 437.445
PHONESAT 2.4 27 May 02:14:27 02:17:23 37° 194° (SSW) 02:20:18 2401.200-2431.200
Cosmos 2491 27 May 02:19:38 02:22:51 12° 72° (ENE) 02:26:03 435.465 / 435.565
ISS 27 May 02:22:19 02:25:01 23° 15° (NNE) 02:27:43 145.825
JAS-2 27 May 02:25:02 02:32:25 57° 291° (WNW) 02:39:02 435.910
BEESAT 27 May 02:26:19 02:31:03 64° 259° (W) 02:35:46 436.000
STARS 27 May 02:39:47 02:41:42 13° 61° (ENE) 02:43:37 437.465
Oscar 19 27 May 02:40:33 02:45:41 64° 287° (WNW) 02:50:44 437.125/150
Cosmos 2504 27 May 02:53:14 02:57:36 15° 58° (ENE) 03:02:03 435.465 / 435.565
Gurwin Techsat 1B 27 May 02:56:19 03:01:41 77° 104° (ESE) 03:06:59 435.225
SO-50 27 May 03:05:39 03:08:13 14° 327° (NNW) 03:10:45 436.795
YUBILEINY 27 May 03:13:58 03:22:39 63° 78° (ENE) 03:31:20 435.215
ITAMSAT 1 27 May 03:20:11 03:25:16 50° 100° (E) 03:30:20 435.822/435.867
RS-15 27 May 03:20:32 03:32:38 66° 245° (WSW) 03:44:40 29.354- 29.394
KKS-1 27 May 03:35:08 03:39:37 87° 76° (ENE) 03:44:07 437.445
SWISSCUBE 27 May 03:37:29 03:39:29 12° 271° (W) 03:41:29 437.505
AO-7 27 May 03:43:04 03:50:33 35° 97° (E) 03:57:57 29.400- 29.500
ITUPSAT 1 27 May 03:43:15 03:45:12 12° 271° (W) 03:47:11 437.325
MOZHAYETS 4 27 May 03:44:39 03:49:12 77° 74° (ENE) 03:53:46
PHONESAT 2.4 27 May 03:52:15 03:53:37 12° 209° (SSW) 03:54:59 2401.200-2431.200
ISS 27 May 03:58:31 04:01:47 88° 226° (SW) 04:05:03 145.825
